Temperature
2 2 2 2 2 2 2 2 2 1 1 2 2 2 2 2 2 2 2 2 2 2 2 3 3 3 3 3 3 3 3 3 3 4 4 4 4 4
2 2 2 2 2 2 2 1 1 1 1 1 1 2 2 2 2 2 2 2 2 2 2 2 2 2 2 3 3 3 3 3 3 3 3 3 4 4
1 1 1 1 1 1 1 1 1 1 0 1 1 1 1 1 1 1 1 1 2 2 2 2 2 2 2 2 2 2 2 2 3 3 3 3 3 4
1 1 1 1 1 1 1 1 1 0 0 0 0 1 1 0 1 1 1 1 1 1 1 1 1 1 1 1 2 2 2 2 2 2 2 3 3 3
0 0 0 0 0 0 0 0 0 -0 -0 -0 -0 -0 0 -0 0 0 0 0 0 1 0 0 0 1 1 1 1 1 1 1 2 2 2 2 2 3
-0 -0 -0 -0 -0 0 -0 -0 -0 -0 -1 -0 -1 -0 -0 -0 -1 -1 -0 -0 -0 -0 -0 0 0 0 1 1 1 1 1 1 1 1 1 2 2 2
-0 -0 -0 -1 -0 -0 -1 -1 -1 -1 -1 -1 -1 -1 -1 -1 -1 -1 -1 -1 -1 -0 -0 -0 0 0 0 0 0 1 1 1 1 1 1 1 1 2
-0 -1 -1 -1 -1 -1 -1 -1 -1 -1 -1 -1 -1 -1 -1 -1 -1 -1 -1 -1 -1 -1 -1 -1 -0 -0 0 0 0 0 0 0 0 0 1 1 1 1
-1 -1 -1 -1 -1 -1 -1 -1 -1 -1 -2 -1 -1 -1 -1 -1 -2 -1 -2 -2 -2 -1 -1 -1 -1 -0 -0 -0 -0 -0 -0 -0 -0 0 0 0 0 1
-1 -2 -2 -2 -2 -2 -2 -2 -2 -2 -2 -2 -2 -2 -2 -2 -2 -2 -2 -2 -2 -2 -2 -2 -1 -1 -1 -1 -1 -1 -1 -1 -1 -0 -0 -0 -0 0
-2 -2 -2 -2 -2 -2 -2 -2 -2 -2 -2 -2 -2 -2 -2 -2 -2 -2 -2 -2 -2 -2 -2 -2 -2 -2 -1 -1 -1 -1 -1 -1 -1 -1 -1 -0 -0 -0
-2 -2 -2 -2 -2 -2 -2 -2 -2 -2 -2 -2 -2 -2 -2 -2 -2 -2 -2 -2 -2 -2 -2 -2 -2 -2 -2 -2 -1 -1 -1 -1 -1 -1 -1 -1 -1 -1
-3 -3 -3 -3 -3 -3 -3 -3 -3 -3 -3 -3 -2 -2 -2 -2 -2 -2 -2 -3 -3 -3 -2 -3 -2 -2 -3 -3 -2 -2 -2 -2 -1 -1 -1 -1 -1 -1
-3 -3 -3 -3 -3 -3 -3 -3 -3 -3 -3 -3 -3 -3 -3 -3 -2 -2 -2 -2 -3 -3 -3 -3 -3 -3 -3 -3 -3 -2 -2 -2 -2 -2 -1 -1 -1 -1
-4 -4 -4 -4 -3 -3 -3 -3 -3 -3 -3 -3 -3 -3 -3 -3 -3 -3 -3 -3 -3 -3 -3 -3 -3 -3 -3 -3 -3 -3 -2 -2 -2 -2 -2 -1 -1 -1
-4 -4 -4 -4 -4 -4 -4 -4 -4 -4 -3 -3 -3 -3 -3 -3 -3 -3 -3 -3 -3 -3 -3 -3 -3 -3 -3 -3 -3 -3 -3 -3 -2 -2 -2 -2 -2 -2
-4 -4 -4 -4 -4 -4 -4 -4 -4 -4 -4 -4 -4 -4 -4 -4 -4 -4 -4 -4 -4 -4 -3 -3 -3 -3 -3 -3 -3 -3 -3 -3 -2 -2 -2 -2 -2 -2
-4 -4 -4 -4 -5 -4 -4 -4 -4 -4 -4 -4 -4 -4 -4 -4 -4 -4 -4 -4 -4 -4 -4 -3 -3 -3 -3 -3 -3 -3 -3 -3 -2 -2 -2 -2 -2 -2
-4 -4 -4 -5 -5 -5 -4 -4 -5 -5 -4 -4 -4 -4 -4 -4 -4 -4 -4 -4 -4 -4 -4 -4 -4 -4 -4 -4 -4 -3 -3 -3 -3 -2 -2 -2 -2 -2
-4 -5 -5 -5 -5 -5 -5 -5 -5 -5 -5 -5 -4 -4 -5 -5 -5 -5 -5 -5 -5 -4 -4 -4 -4 -4 -4 -4 -4 -3 -3 -3 -3 -3 -3 -3 -3 -3
-5 -5 -5 -5 -5 -5 -5 -5 -5 -5 -5 -5 -5 -5 -5 -5 -5 -5 -5 -5 -5 -5 -4 -4 -4 -4 -4 -4 -4 -4 -3 -3 -3 -3 -3 -3 -3 -3
-5 -5 -5 -5 -5 -5 -5 -5 -5 -5 -5 -5 -5 -5 -5 -5 -5 -5 -5 -5 -5 -5 -5 -4 -4 -4 -4 -4 -4 -4 -3 -3 -3 -3 -3 -3 -3 -3
-5 -5 -5 -5 -5 -5 -5 -5 -5 -5 -5 -5 -5 -5 -5 -5 -5 -5 -5 -5 -5 -5 -4 -4 -4 -4 -4 -4 -4 -4 -4 -3 -3 -3 -3 -3 -3 -3
Wind_Speed
4 4 3 3 3 3 3 3 3 4 4 3 2 2 3 4 6 5 5 8 10 11 12 12 12 12 13 13 14 14 15 15 15 16 17 17 18 18
3 4 3 3 3 3 3 3 3 4 5 3 3 4 4 6 8 7 7 9 11 11 12 13 12 12 13 13 13 13 13 14 14 15 16 17 17 17
3 4 4 3 3 3 3 3 3 3 6 5 4 4 5 5 5 6 7 7 8 11 12 12 12 13 13 13 13 13 13 13 14 15 15 15 15 16
4 4 3 3 3 3 3 4 4 4 4 6 5 4 5 5 4 5 5 6 6 10 12 12 12 13 13 13 13 13 13 13 13 14 14 15 14 15
4 4 4 3 3 3 4 4 4 4 4 5 5 4 4 4 5 5 6 4 7 8 10 11 12 12 13 13 12 12 12 13 13 13 13 14 13 14
4 4 4 4 4 4 4 4 4 4 3 3 4 4 4 4 4 4 5 4 5 6 8 9 10 12 12 12 12 12 12 12 12 12 12 12 12 12
3 3 3 4 5 4 4 3 3 3 3 3 4 4 4 3 4 4 5 5 5 4 4 5 6 6 7 10 10 11 11 11 11 11 12 12 11 11
3 3 3 4 5 6 7 6 5 5 4 4 4 5 5 4 4 5 5 5 5 3 4 6 4 5 5 5 8 10 10 10 10 11 11 10 10 10
3 3 3 3 3 2 4 5 5 6 6 5 5 6 5 5 5 5 5 5 5 5 5 6 4 5 5 6 9 9 9 9 10 10 10 9 9 9
3 3 3 2 2 2 2 2 2 4 4 4 4 5 5 5 5 5 5 5 5 4 3 4 5 4 5 4 8 8 8 9 10 10 8 8 8 8
2 2 2 3 4 4 2 2 3 3 4 6 6 6 7 9 7 4 3 4 5 4 2 2 3 4 4 3 5 7 8 9 9 9 8 8 8 8
2 2 3 3 5 4 2 2 3 4 3 4 4 5 5 5 6 4 3 3 3 3 2 1 3 3 3 2 2 4 5 7 9 9 9 8 8 5
2 1 2 4 4 5 4 3 5 4 2 2 3 3 3 3 3 3 2 3 3 3 3 2 2 2 2 3 3 3 3 4 5 6 8 8 8 6
2 1 2 3 4 5 4 3 4 3 1 2 2 3 3 3 2 2 3 2 2 3 3 3 2 3 3 3 4 3 3 4 3 3 4 6 6 6
1 2 3 3 4 3 3 4 3 1 1 2 2 2 2 3 2 2 3 3 3 3 3 2 2 2 2 3 3 4 4 4 3 3 3 3 3 3
1 2 2 3 3 2 2 2 2 1 2 2 2 2 2 2 2 2 3 3 3 3 4 3 2 2 2 3 3 4 3 3 3 4 3 3 3 3
1 0 0 0 0 1 1 1 1 1 2 2 2 2 2 2 2 2 2 2 2 3 4 3 2 1 1 2 3 3 3 3 3 3 3 4 3 3
0 0 0 1 1 1 1 1 1 2 2 2 2 2 2 2 2 2 2 2 2 3 3 3 3 3 2 2 2 3 3 3 3 3 2 2 3 4
0 0 0 1 1 1 1 1 2 2 2 2 2 2 2 2 2 2 2 2 2 2 3 3 3 2 3 4 3 3 2 3 3 3 2 2 2 3
0 0 1 1 1 1 1 2 2 2 2 2 2 2 2 2 2 2 2 2 2 3 3 2 2 2 2 2 3 3 4 2 2 3 2 2 2 2
1 1 1 1 1 1 1 2 2 2 2 2 2 2 2 2 2 2 2 3 2 2 3 3 3 4 2 1 2 2 3 4 3 2 2 2 2 2
1 1 1 1 1 1 2 2 2 2 2 2 2 2 2 2 2 2 2 2 2 2 3 3 3 2 1 1 2 2 3 4 5 6 6 3 1 1
1 1 1 1 2 1 1 2 2 2 2 2 2 2 2 2 2 2 2 2 2 2 2 2 2 2 2 1 1 1 3 3 3 4 4 7 6 4
Wind_Direction
240 239 239 243 246 250 248 237 243 272 278 268 279 293 306 300 292 287 279 288 294 297 297 298 297 297 297 298 298 298 298 299 299 300 300 299 299 297
240 240 244 246 244 247 247 248 240 249 267 277 287 295 307 299 294 297 283 288 289 291 294 295 297 296 296 299 300 300 301 301 300 299 299 299 300 299
248 245 246 246 244 246 247 247 248 248 266 281 281 290 295 293 301 300 292 281 282 287 290 294 298 298 298 299 300 301 301 302 302 303 303 303 303 304
243 244 248 248 246 254 252 249 250 245 256 276 285 288 289 286 290 292 296 296 289 288 289 292 295 296 297 297 298 299 301 302 302 303 304 305 305 306
237 240 244 245 253 255 256 254 254 261 258 264 279 286 290 293 299 295 292 298 301 297 294 293 294 295 296 297 297 297 299 299 301 302 303 304 305 306
238 241 242 240 244 247 254 254 256 259 256 261 275 284 285 287 291 297 302 299 302 306 303 299 297 297 298 298 297 297 297 298 300 302 304 306 306 306
245 244 245 254 260 252 259 252 255 259 258 260 268 281 282 290 293 294 296 301 297 298 306 299 296 294 299 299 298 298 299 300 301 303 306 306 305 306
242 249 248 248 258 266 271 269 261 254 253 260 269 270 276 283 289 292 296 303 300 305 312 306 300 297 297 301 300 302 303 308 310 309 308 310 309 309
228 238 258 260 271 255 270 282 284 278 266 263 267 274 277 277 281 290 290 292 288 293 305 299 302 301 298 309 310 309 311 314 313 313 313 315 316 314
233 234 237 234 244 259 259 276 283 289 282 279 266 276 283 282 272 271 274 285 288 293 290 286 294 293 301 310 313 315 318 318 318 318 319 319 319 320
252 246 241 229 252 274 268 271 288 294 296 289 289 292 294 295 293 293 289 290 298 300 291 271 283 296 299 303 321 328 328 327 327 328 328 326 325 320
255 247 253 259 264 275 246 237 267 279 291 308 308 308 308 306 305 295 280 282 289 292 289 286 293 317 310 300 319 337 334 332 334 335 336 335 331 329
254 262 260 281 286 284 282 257 265 280 280 290 299 301 305 311 316 316 296 278 278 278 288 293 294 297 282 299 310 310 324 329 334 335 337 337 336 338
242 256 269 287 293 293 293 292 295 307 299 295 298 300 303 309 315 323 330 329 299 284 292 292 279 288 294 299 305 311 316 331 333 330 340 335 335 334
247 269 288 299 306 301 300 305 306 298 276 278 288 296 302 301 310 323 330 332 331 329 320 309 295 297 293 289 299 308 311 314 325 330 334 334 340 342
273 280 302 306 310 310 315 315 311 285 280 272 282 294 301 309 315 320 323 323 328 330 341 344 342 322 312 308 302 310 314 310 322 325 330 338 354 356
275 303 300 294 308 319 314 317 325 330 317 301 295 300 307 311 317 319 314 316 308 315 326 331 351 8 339 316 309 310 314 316 318 331 339 341 343 359
277 182 245 261 266 281 296 313 318 313 305 302 302 299 303 307 312 320 320 316 316 318 319 323 327 326 333 352 327 297 313 317 324 336 343 343 341 350
71 186 250 263 276 282 292 301 299 299 298 294 300 299 296 301 305 314 319 318 317 319 323 326 329 335 333 330 332 342 316 320 331 338 345 345 332 338
48 230 263 279 291 293 296 301 303 304 304 302 298 297 298 299 298 301 302 308 313 320 326 329 330 320 299 294 303 323 336 328 325 330 340 348 354 352
350 329 312 306 304 298 291 292 294 296 295 296 294 294 292 294 294 295 299 301 308 315 318 316 301 303 295 304 319 331 342 355 354 336 331 345 355 7
337 326 321 309 300 293 293 294 298 300 297 298 297 293 288 282 287 294 299 300 303 304 303 305 313 324 338 334 322 330 340 349 11 25 30 28 24 5
300 306 304 300 296 293 289 288 292 294 293 292 291 287 283 284 287 290 293 294 295 296 303 313 326 340 337 324 325 349 356 355 7 25 27 25 32 30
Height
1467 1467 1467 1468 1468 1469 1469 1469 1469 1466 1464 1464 1464 1464 1463 1462 1461 1460 1459 1458 1456 1455 1454 1452 1450 1449 1447 1446 1444 1443 1442 1440 1439 1438 1437 1436 1435 1433
1463 1463 1463 1463 1464 1464 1464 1464 1464 1464 1461 1460 1460 1460 1459 1458 1457 1456 1454 1453 1451 1450 1449 1447 1445 1443 1442 1440 1439 1437 1436 1435 1434 1432 1431 1430 1429 1427
1458 1459 1458 1459 1459 1459 1460 1460 1460 1459 1457 1456 1456 1456 1455 1454 1452 1451 1449 1448 1446 1445 1443 1442 1440 1438 1437 1435 1434 1432 1431 1430 1428 1427 1426 1424 1423 1421
1454 1454 1454 1454 1454 1455 1455 1455 1455 1455 1454 1452 1451 1451 1450 1449 1448 1446 1445 1443 1442 1440 1438 1437 1435 1433 1432 1430 1429 1427 1426 1425 1423 1422 1420 1419 1417 1416
1449 1450 1449 1450 1450 1450 1450 1450 1450 1450 1450 1449 1447 1446 1446 1445 1443 1442 1440 1439 1437 1435 1434 1432 1430 1429 1427 1426 1424 1422 1421 1420 1419 1417 1416 1414 1412 1411
1445 1445 1445 1445 1445 1446 1446 1446 1446 1446 1445 1445 1444 1442 1441 1440 1439 1437 1435 1434 1432 1431 1429 1427 1425 1424 1422 1421 1419 1418 1416 1415 1414 1412 1411 1409 1408 1407
1441 1441 1441 1442 1442 1442 1442 1442 1442 1441 1441 1441 1440 1438 1437 1436 1435 1434 1432 1429 1427 1426 1424 1422 1420 1419 1417 1416 1414 1413 1412 1410 1409 1408 1406 1405 1404 1402
1437 1437 1438 1438 1438 1438 1438 1438 1438 1438 1437 1437 1435 1434 1433 1433 1432 1430 1428 1426 1423 1423 1420 1417 1416 1414 1412 1411 1409 1408 1407 1406 1405 1403 1402 1401 1400 1398
1433 1434 1434 1434 1434 1434 1434 1434 1434 1434 1435 1434 1432 1431 1430 1429 1429 1427 1425 1423 1421 1419 1417 1412 1411 1409 1408 1406 1405 1403 1402 1401 1400 1399 1398 1397 1395 1394
1430 1430 1430 1430 1431 1431 1430 1430 1430 1430 1430 1430 1429 1428 1427 1426 1426 1424 1422 1420 1417 1415 1414 1410 1407 1405 1404 1402 1401 1400 1399 1397 1396 1395 1394 1393 1392 1391
1426 1427 1427 1427 1428 1428 1427 1427 1426 1426 1427 1426 1426 1425 1424 1423 1422 1420 1418 1416 1413 1411 1410 1407 1404 1402 1400 1399 1398 1397 1396 1395 1393 1392 1391 1389 1388 1387
1423 1424 1424 1424 1424 1424 1424 1424 1423 1423 1423 1422 1422 1421 1420 1419 1418 1417 1415 1413 1410 1408 1407 1405 1402 1401 1398 1396 1395 1394 1393 1392 1391 1389 1388 1387 1386 1384
1420 1420 1420 1421 1421 1421 1421 1421 1420 1420 1420 1419 1418 1417 1416 1415 1414 1413 1412 1411 1409 1407 1406 1404 1401 1399 1398 1395 1393 1393 1391 1390 1388 1387 1386 1385 1384 1382
1417 1418 1418 1418 1418 1418 1418 1418 1418 1418 1417 1416 1415 1414 1413 1412 1411 1410 1409 1408 1406 1405 1403 1402 1399 1397 1396 1394 1392 1390 1390 1388 1387 1385 1384 1383 1381 1381
1415 1415 1415 1415 1415 1415 1415 1415 1415 1415 1414 1413 1412 1411 1411 1410 1409 1408 1406 1405 1403 1402 1401 1400 1398 1396 1394 1393 1391 1389 1388 1386 1386 1384 1382 1381 1379 1378
1412 1412 1413 1413 1413 1413 1412 1412 1412 1412 1411 1411 1410 1409 1409 1408 1407 1405 1404 1402 1401 1400 1399 1398 1396 1394 1393 1391 1390 1388 1386 1385 1384 1383 1381 1379 1378 1377
1410 1410 1410 1410 1409 1410 1410 1410 1410 1409 1409 1408 1408 1407 1406 1406 1404 1403 1402 1401 1400 1398 1397 1396 1395 1393 1391 1390 1388 1387 1386 1384 1383 1381 1380 1378 1377 1376
1408 1407 1407 1407 1407 1407 1407 1407 1407 1407 1406 1406 1406 1405 1404 1404 1403 1402 1401 1400 1399 1397 1396 1394 1393 1391 1390 1389 1388 1386 1385 1383 1382 1381 1379 1378 1376 1376
1406 1405 1405 1405 1405 1405 1405 1405 1405 1405 1404 1404 1404 1403 1403 1402 1401 1401 1400 1399 1398 1396 1395 1394 1392 1391 1389 1388 1387 1386 1384 1383 1381 1380 1379 1378 1377 1376
1404 1404 1404 1404 1404 1404 1404 1403 1403 1403 1402 1402 1402 1402 1401 1401 1400 1399 1399 1398 1397 1395 1394 1393 1392 1391 1390 1389 1387 1385 1385 1383 1381 1380 1380 1379 1378 1377
1402 1402 1402 1402 1402 1402 1402 1402 1401 1401 1401 1401 1400 1400 1400 1399 1399 1398 1398 1397 1396 1395 1394 1392 1392 1391 1390 1388 1387 1385 1384 1383 1382 1381 1380 1379 1378 1377
1401 1401 1401 1401 1400 1400 1400 1400 1400 1399 1399 1399 1399 1398 1398 1398 1397 1397 1396 1396 1395 1394 1393 1392 1391 1390 1389 1388 1387 1385 1384 1383 1382 1381 1381 1380 1379 1377
1400 1400 1399 1399 1399 1399 1399 1398 1398 1398 1398 1397 1397 1397 1397 1396 1396 1395 1395 1395 1394 1393 1392 1391 1390 1389 1389 1388 1387 1386 1385 1384 1382 1382 1381 1381 1380 1379